STARLINK-32275, 60360

Orbit data source: Space-Track

STARLINK-32275, 60360 is a payload satellite owned by SpaceX/Seattle (US) in LEO that was launched on Sun, 04 Aug 2024 UTC via an FALCON 9 launch vehicle from the Air Force Western Test Range (AFWTR). Payload-class satellites include a variety of spacecraft equipped with specific instruments for various scientific and technological missions. These include communications satellites like Starlink; space stations such as the ISS; scientific satellites like the Hubble; Earth observation satellites from companies like Planet Labs, Umbra, and HawkEye 360; GPS; miniature CubeSats for education and research; and military/defense satellites.

Loading next visibility...
Identifier
60360, 2024-138F
Orbit
LEO
Country
Flag of USUS
Related business
Manufacturer
SpaceX/Seattle
Mission
Operational Commercial Communications
Bus & Motor
STARLINK V2M, Unknown motor
Mass
730 kg wet, ~700 kg dry
Launch date (UTC)
2024-08-04 (1 year ago)
Launch vehicle
FALCON 9
Launch site
Air Force Western Test Range (AFWTR)
Object type
Payload
Rocket body
Debris
Shape & HBR
Box + 2 Pan, 17.7 m
Radar Cross Section
33.884 m², Large (>1 m²)

Expand to show TLE details & history
Last TLE update: 16 hours ago

TLE from 16 hours ago
0 STARLINK-32275
1 60360U 24138F   25353.65400242 -.00000052  00000-0  10361-4 0  9997
2 60360  53.1628 321.3721 0001368  86.9561 273.1596 15.30186850 78379
Epoch: 2025-12-19T15:41Z
TLE epoch observation values (Epoch: 2025-12-19T15:41:45.809Z)
Latitude
-0.00003°
Longitude
-2.56085°
Altitude
476.103 km
Speed
7.629 km/s
True Right ascension
21h 25m 29s
True Declination
0° 00' 00"
Sunlit
Object was in daylight at epoch
Visualization orbit readout
Latitude
Unknown
Longitude
Unknown
Altitude
Unknown
Speed
Unknown
Apparent Right ascension
Unknown
Apparent Declination
Unknown
Sunlit
N/A
Visualization observer readout
Local Sidereal Time
06:16:40
Azimuth
Unknown
Elevation
Unknown
Doppler factor
Unknown
Orbital elements
Apogee altitude
476.448 km
Perigee altitude
474.573 km
Semi-major axis
6,853.647 km
Eccentricity
0.00014
Inclination
53.1628°
RAAN
321.3721°
Arg. of periapsis
86.9561°
True anomaly
273.14395°
Mean anomaly
273.1596°
Eccentric anomaly
273.15177°
Mean motion
3.82526 °/min
Orbital period
94.11 mins
BSTAR
0.000010361
Loading maneuver chart data...
Computing Atmospheric mass density...
Loading historical data...
Loading historical data...
Loading historical data...
Loading historical data...
Loading historical data...
Loading historical data...
Loading historical data...

Documentation

Showing up to 5 results
|